[[{"header":{"parameterUnit":"m.s-1","parameterCategory":1,"la1":30.2991,"la2":30.254,"lo1":-89.0895,"lo2":-89.0444,"dy":0.0017,"dx":0.0017,"nx":28,"ny":28,"refTime":"2024-03-10T03:00:00:Z","depth":0,"parameterNumber":2,"parameterNumberName":"U-component_of_WINDS"},"data":[0,0,0,0,0,0,0,0,0,0,0,0,0,0,0,0,0,0,0,0,0,0,0,0,0,0,0,0,0,0,0,0,0,0,0,0,0,0,0,0,0,0,0,0,0,0,0,0,0,0,0,0,0,0,0,0,0,0,1.9204,1.9204,0,1.9226,1.9226,1.9226,1.9239,1.924,1.924,1.924,1.9263,1.9263,1.9264,0,0,0,0,0,0,0,0,0,0,0,0,0,1.9178,1.9178,1.9204,1.9204,1.9205,1.9226,1.9226,1.9226,1.9239,1.924,1.924,1.924,1.9262,1.9263,1.9264,0,0,0,0,0,0,0,0,0,0,0,0,0,1.9193,1.9178,1.9204,1.9214,1.9215,1.9226,1.9226,1.9226,1.9239,1.924,1.924,1.924,1.9262,1.9263,1.9264,1.9267,0,0,1.9266,1.9267,0,0,0,0,0,0,0,0,1.9192,1.9194,1.9212,1.9213,1.9214,1.923,1.9225,1.924,1.9239,1.923,1.924,1.924,1.9252,1.9253,1.9257,1.9268,1.9269,1.9266,1.9267,1.9267,1.9267,0,0,0,0,0,0,0,1.9191,1.9193,1.9213,1.9212,1.9214,1.9218,1.9221,1.9228,1.924,1.9231,1.9232,1.9234,1.9252,1.9256,1.9258,1.9269,1.9266,1.9267,1.9268,1.9268,1.9288,1.9288,0,0,0,0,0,0,1.9188,1.9192,1.9212,1.9213,1.9203,1.9219,1.9221,1.9225,1.924,1.9242,1.9234,1.9235,1.9255,1.9257,1.9259,1.9265,1.9267,1.9268,1.9268,1.9288,1.9288,1.9288,0,0,0,0,0,0,1.9188,1.919,1.9211,1.9203,1.9206,1.9219,1.9223,1.9225,1.9229,1.9243,1.9245,1.9236,1.9255,1.9258,1.9266,1.9266,1.9268,1.9269,1.9288,1.9288,1.9288,1.9278,0,0,0,0,0,0,1.9187,1.919,1.919,1.9203,1.9207,1.9216,1.9223,1.9226,1.9231,1.9232,1.9245,1.9247,1.9255,1.9264,1.9266,1.9268,1.927,1.9288,1.9288,1.9288,1.9278,1.9277,1.9277,0,0,0,0,0,1.9186,1.9185,1.919,1.9192,1.9207,1.9216,1.9218,1.9228,1.923,1.9232,1.9241,1.9247,1.9266,1.9265,1.9267,1.9269,1.9287,1.9288,1.9288,1.9278,1.9277,1.9277,0,0,0,0,0,0,1.9171,1.9187,1.9192,1.9196,1.9205,1.9218,1.922,1.9226,1.9235,1.9235,1.9247,1.925,1.9257,1.9264,1.9262,1.9275,1.9278,1.9278,1.927,1.9269,1.9269,1.9267,1.927,0,0,0,0,0,1.9169,1.9174,1.9188,1.919,1.9194,1.9207,1.9211,1.9218,1.9228,1.9231,1.9241,1.9251,1.926,1.9265,1.9273,1.9279,1.9284,1.9282,1.9282,1.9281,1.9281,1.9288,1.9288,1.9288,1.9288,1.9288,0,0,1.9163,1.9172,1.9175,1.9187,1.9195,1.9202,1.9209,1.9215,1.9221,1.9232,1.9241,1.9249,1.9261,1.9269,1.9272,1.9274,1.9283,1.9281,1.9281,1.9281,1.9288,1.9288,1.9288,1.9288,1.9288,1.9288,0,0,1.9156,1.9163,1.9166,1.9175,1.9187,1.9195,1.9197,1.921,1.9216,1.9225,1.9234,1.9242,1.9256,1.9265,1.9271,1.9273,1.9279,1.9275,1.9272,1.9278,1.9278,1.9278,1.9281,1.9281,1.9275,1.9275,1.9275,0,1.9147,1.9156,1.9167,1.9174,1.918,1.9192,1.9197,1.9205,1.9219,1.9224,1.9226,1.9246,1.9255,1.9266,1.9267,1.9271,1.9275,1.9273,1.9277,1.9278,1.9278,1.928,1.9281,1.9275,1.9275,1.9275,1.9275,0,1.9146,1.9153,1.9155,1.9169,1.9176,1.9182,1.9195,1.9201,1.9209,1.9218,1.9229,1.924,1.9253,1.9256,1.9262,1.927,1.9271,1.9275,1.9278,1.9277,1.928,1.928,1.9274,1.9274,1.9275,1.9275,0,0,1.9127,1.9151,1.9151,1.9159,1.9175,1.9181,1.9189,1.9202,1.9208,1.9218,1.9226,1.924,1.9245,1.9252,1.9261,1.9267,1.9269,1.9271,1.9271,1.9271,1.9281,1.9277,1.9278,1.9274,1.9275,1.9275,1.928,0,1.9124,1.9137,1.9149,1.9159,1.9167,1.918,1.9187,1.9199,1.9209,1.9218,1.9229,1.9239,1.9244,1.9249,1.9256,1.9268,1.9272,1.9267,1.9283,1.9283,1.928,1.9279,1.9275,1.9279,1.9281,1.9281,1.9281,0,1.9119,1.9131,1.9141,1.916,1.9164,1.917,1.9184,1.9192,1.9207,1.9214,1.9225,1.9234,1.9245,1.9248,1.9265,1.9262,1.927,1.9277,1.9277,1.9279,1.9282,1.9281,1.928,1.9281,1.9282,1.9282,1.9282,0,1.9107,1.9124,1.9134,1.914,1.9161,1.9166,1.9175,1.919,1.9198,1.9211,1.9217,1.9231,1.9239,1.9251,1.9265,1.9266,1.9281,1.9285,1.9288,1.9288,1.929,1.929,1.9291,1.9295,1.9295,1.9294,1.9294,0,1.9101,1.9107,1.9129,1.9134,1.9143,1.9158,1.9167,1.9177,1.9191,1.9201,1.9213,1.9222,1.924,1.9252,1.9263,1.9277,1.928,1.9287,1.929,1.9286,1.9285,1.9291,1.9291,1.9295,1.9295,1.9295,1.9295,0,1.9087,1.9102,1.9113,1.9133,1.9139,1.9144,1.9163,1.917,1.9182,1.9194,1.9198,1.9216,1.9231,1.9247,1.9267,1.9275,1.9288,1.9292,1.9283,1.9285,1.9288,1.9288,1.9293,1.9295,1.9296,1.9296,1.9296,0,1.9082,1.9088,1.9109,1.9117,1.9126,1.9137,1.9146,1.9163,1.9172,1.9191,1.9197,1.9213,1.9226,1.925,1.9266,1.9282,1.9287,1.9288,1.9289,1.9286,1.9289,1.9288,1.929,1.9287,1.9287,1.9287,1.9287,0,1.9073,1.9081,1.9092,1.9108,1.9119,1.9132,1.9145,1.9151,1.9171,1.918,1.9196,1.9207,1.9229,1.9245,1.9264,1.9275,1.9285,1.9287,1.9289,1.9284,1.9279,1.9284,1.9282,1.9286,1.9286,1.9286,1.9286,1.9286,1.9064,1.907,1.9088,1.9102,1.9114,1.9127,1.9136,1.915,1.9163,1.9182,1.9192,1.9208,1.9227,1.9253,1.9264,1.9279,1.9281,1.9284,1.9284,1.9285,1.9285,1.9278,1.9282,1.9282,1.9282,1.9282,1.9282,0,1.9056,1.9068,1.9081,1.9101,1.9113,1.9122,1.9138,1.9148,1.9162,1.9178,1.9192,1.9212,1.9229,1.9248,1.9267,1.9275,1.928,1.9279,1.9279,1.9282,1.928,1.9277,1.9275,1.9275,1.9275,1.9275,1.9275,1.9275,1.9053,1.9066,1.9076,1.9096,1.9109,1.9125,1.9134,1.9148,1.9161,1.9183,1.9197,1.921,1.9228,1.9249,1.9266,1.9271,1.9278,1.9276,1.9283,1.9281,1.9281,1.9282,1.9279,1.9277,1.9277,1.9283,1.9283,1.9283]},{"header":{"parameterUnit":"m.s-1","parameterCategory":1,"la1":30.2991,"la2":30.254,"lo1":-89.0895,"lo2":-89.0444,"dy":0.0017,"dx":0.0017,"nx":28,"ny":28,"refTime":"2024-03-10T03:00:00:Z","depth":0,"parameterNumber":3,"parameterNumberName":"V-component_of_WINDS"},"data":[0,0,0,0,0,0,0,0,0,0,0,0,0,0,0,0,0,0,0,0,0,0,0,0,0,0,0,0,0,0,0,0,0,0,0,0,0,0,0,0,0,0,0,0,0,0,0,0,0,0,0,0,0,0,0,0,0,0,-3.7965,-3.7965,0,-3.7973,-3.7974,-3.7974,-3.8005,-3.8006,-3.8006,-3.8007,-3.8014,-3.8014,-3.8013,0,0,0,0,0,0,0,0,0,0,0,0,0,-3.7978,-3.7978,-3.7965,-3.7965,-3.7966,-3.7973,-3.7974,-3.7974,-3.8005,-3.8006,-3.8006,-3.8007,-3.8014,-3.8014,-3.8013,0,0,0,0,0,0,0,0,0,0,0,0,0,-3.7978,-3.7978,-3.7965,-3.7982,-3.7984,-3.7973,-3.7974,-3.7974,-3.8004,-3.8006,-3.8007,-3.8008,-3.8015,-3.8014,-3.8013,-3.7987,0,0,-3.8011,-3.8011,0,0,0,0,0,0,0,0,-3.7978,-3.7978,-3.7979,-3.7981,-3.7983,-3.7989,-3.7981,-3.7978,-3.8004,-3.7996,-3.8007,-3.8008,-3.8005,-3.8005,-3.8004,-3.7987,-3.7988,-3.8011,-3.801,-3.801,-3.801,0,0,0,0,0,0,0,-3.7978,-3.7977,-3.7969,-3.798,-3.7981,-3.799,-3.7991,-3.798,-3.7995,-3.7997,-3.8,-3.8,-3.8006,-3.8005,-3.8005,-3.7988,-3.8011,-3.801,-3.801,-3.801,-3.7953,-3.7952,0,0,0,0,0,0,-3.7976,-3.7977,-3.7968,-3.7969,-3.7983,-3.7988,-3.799,-3.7986,-3.7995,-3.7997,-3.7999,-3.8002,-3.8005,-3.8005,-3.8005,-3.7976,-3.801,-3.8009,-3.8009,-3.7954,-3.7953,-3.7952,0,0,0,0,0,0,-3.7976,-3.7974,-3.7968,-3.7974,-3.7973,-3.7987,-3.7983,-3.7986,-3.7984,-3.7996,-3.7999,-3.7995,-3.8006,-3.8006,-3.7992,-3.7977,-3.8009,-3.8008,-3.7955,-3.7954,-3.7952,-3.7918,0,0,0,0,0,0,-3.7976,-3.7974,-3.7964,-3.7973,-3.7973,-3.7954,-3.7982,-3.7985,-3.7983,-3.7986,-3.7993,-3.7995,-3.8007,-3.7993,-3.7991,-3.7976,-3.8008,-3.7957,-3.7955,-3.7953,-3.792,-3.7915,-3.7911,0,0,0,0,0,-3.7976,-3.7953,-3.7963,-3.7962,-3.796,-3.7953,-3.7953,-3.7967,-3.7982,-3.7972,-3.798,-3.7995,-3.7979,-3.7991,-3.799,-3.7974,-3.7958,-3.7955,-3.7953,-3.7922,-3.7916,-3.7911,0,0,0,0,0,0,-3.794,-3.7954,-3.7966,-3.7945,-3.7948,-3.7958,-3.7946,-3.796,-3.7958,-3.7961,-3.7979,-3.798,-3.7964,-3.7968,-3.7981,-3.7951,-3.7971,-3.7968,-3.7948,-3.7943,-3.7938,-3.7937,-3.8007,0,0,0,0,0,-3.793,-3.7923,-3.7936,-3.7916,-3.7918,-3.7932,-3.7929,-3.794,-3.7944,-3.7945,-3.7952,-3.7954,-3.7951,-3.7947,-3.7944,-3.7922,-3.7924,-3.7911,-3.7906,-3.7902,-3.7899,-3.789,-3.7884,-3.7944,-3.7944,-3.7944,0,0,-3.7909,-3.7916,-3.791,-3.791,-3.7913,-3.7906,-3.7932,-3.7923,-3.7918,-3.7943,-3.793,-3.7936,-3.7941,-3.7923,-3.7916,-3.7926,-3.7884,-3.7899,-3.7896,-3.7895,-3.7886,-3.7881,-3.7876,-3.7942,-3.7942,-3.7943,0,0,-3.7866,-3.787,-3.7855,-3.7859,-3.7864,-3.7875,-3.7871,-3.788,-3.7885,-3.7873,-3.7893,-3.7888,-3.788,-3.7883,-3.7883,-3.7846,-3.786,-3.7844,-3.7819,-3.7809,-3.7804,-3.78,-3.7787,-3.7782,-3.7841,-3.7841,-3.7841,0,-3.7838,-3.7827,-3.7845,-3.7835,-3.7835,-3.786,-3.7845,-3.7848,-3.7852,-3.7851,-3.7864,-3.7856,-3.7861,-3.7845,-3.7836,-3.7835,-3.7833,-3.7842,-3.7804,-3.78,-3.7796,-3.7784,-3.7779,-3.7839,-3.784,-3.784,-3.784,0,-3.7794,-3.7787,-3.7774,-3.7778,-3.7777,-3.7765,-3.7781,-3.7778,-3.7791,-3.78,-3.7789,-3.7796,-3.7795,-3.7793,-3.7804,-3.7779,-3.7786,-3.7801,-3.7821,-3.7788,-3.7777,-3.7773,-3.7837,-3.7837,-3.7838,-3.7838,0,0,-3.7724,-3.7742,-3.7737,-3.774,-3.775,-3.7745,-3.7735,-3.7736,-3.7733,-3.7736,-3.7728,-3.7723,-3.7738,-3.7738,-3.7751,-3.7743,-3.7714,-3.7759,-3.7759,-3.775,-3.7688,-3.7676,-3.767,-3.7724,-3.7723,-3.7723,-3.7688,0,-3.7684,-3.7667,-3.7684,-3.7664,-3.7659,-3.7684,-3.7676,-3.7681,-3.7691,-3.7688,-3.7699,-3.7695,-3.7714,-3.7715,-3.7708,-3.7718,-3.7701,-3.7721,-3.7717,-3.7717,-3.7714,-3.7664,-3.7651,-3.7617,-3.7683,-3.7683,-3.7682,0,-3.7632,-3.7635,-3.7614,-3.7628,-3.7626,-3.7618,-3.7621,-3.7619,-3.7626,-3.7634,-3.7637,-3.7653,-3.7645,-3.7666,-3.7657,-3.767,-3.767,-3.7675,-3.7674,-3.7673,-3.7696,-3.7661,-3.7607,-3.7601,-3.7675,-3.7676,-3.7676,0,-3.7584,-3.7582,-3.757,-3.7573,-3.7588,-3.7582,-3.7588,-3.7597,-3.7598,-3.7601,-3.7601,-3.7603,-3.7604,-3.7606,-3.7623,-3.7637,-3.7612,-3.7634,-3.7618,-3.7617,-3.761,-3.7609,-3.7553,-3.7611,-3.7611,-3.7611,-3.7611,0,-3.7536,-3.7522,-3.7549,-3.7542,-3.7528,-3.755,-3.7536,-3.7545,-3.7553,-3.7549,-3.7571,-3.7567,-3.759,-3.7588,-3.7601,-3.7592,-3.7592,-3.7598,-3.7602,-3.7595,-3.7595,-3.7594,-3.7597,-3.761,-3.761,-3.7611,-3.7611,0,-3.7478,-3.7496,-3.7485,-3.7502,-3.7506,-3.7495,-3.751,-3.7504,-3.7517,-3.7511,-3.751,-3.753,-3.7529,-3.7547,-3.7549,-3.7559,-3.7543,-3.7551,-3.754,-3.7542,-3.7525,-3.7526,-3.7466,-3.746,-3.7522,-3.7521,-3.7521,0,-3.7445,-3.7436,-3.7453,-3.7452,-3.7457,-3.7455,-3.7456,-3.7478,-3.7478,-3.7488,-3.7481,-3.7483,-3.7485,-3.7483,-3.7498,-3.7501,-3.7508,-3.7488,-3.7509,-3.7504,-3.7508,-3.7508,-3.7507,-3.7482,-3.7481,-3.7481,-3.748,0,-3.7385,-3.7395,-3.7396,-3.74,-3.7401,-3.7405,-3.7411,-3.7409,-3.7433,-3.7432,-3.7433,-3.7435,-3.7439,-3.744,-3.7446,-3.7454,-3.7471,-3.7474,-3.747,-3.7463,-3.7457,-3.746,-3.7527,-3.7474,-3.7475,-3.7475,-3.7476,-3.7476,-3.7339,-3.7332,-3.7344,-3.7344,-3.7352,-3.7357,-3.7353,-3.7367,-3.7367,-3.7372,-3.7386,-3.7384,-3.7395,-3.7406,-3.7412,-3.7412,-3.7422,-3.7417,-3.7415,-3.7413,-3.741,-3.7459,-3.7413,-3.7413,-3.7413,-3.7413,-3.7414,0,-3.7279,-3.7289,-3.729,-3.7298,-3.7299,-3.7317,-3.7326,-3.7325,-3.7323,-3.7333,-3.7335,-3.7337,-3.7339,-3.7355,-3.736,-3.7357,-3.7365,-3.7357,-3.7357,-3.7359,-3.74,-3.7403,-3.7351,-3.7351,-3.7351,-3.7351,-3.7351,-3.7351,-3.7248,-3.7239,-3.7251,-3.7246,-3.7256,-3.7255,-3.7259,-3.7265,-3.7272,-3.7273,-3.7276,-3.7287,-3.7299,-3.7306,-3.7309,-3.7314,-3.7315,-3.7304,-3.7311,-3.7349,-3.7355,-3.7361,-3.7364,-3.7304,-3.7304,-3.727,-3.727,-3.7269]}]]